GFSSE_250_spd_027.txt.gz
Wind_Speed
19 22 24 25 27 29 32 34 36 40 42 44 45 47 51 49 44 40 39 38 35 30 23 17 17 18 24 28 32 38 42 45 46 46 46 46 45 45 43 42 42 39 37
21 23 25 27 29 31 32 33 35 39 40 46 45 46 51 52 47 40 41 42 41 36 30 22 16 16 17 22 27 32 40 46 48 49 49 47 46 46 46 47 47 44 42
25 27 28 29 30 32 34 34 35 38 40 44 45 45 50 52 50 44 40 43 43 41 35 29 22 15 18 16 19 21 30 40 48 50 51 53 53 50 49 48 49 48 46
26 29 30 29 30 33 35 36 35 37 40 42 44 44 47 51 52 48 42 42 41 42 37 32 27 24 20 19 18 17 17 22 33 45 53 54 53 51 51 50 50 50 49
30 29 31 32 32 33 35 36 37 38 40 40 41 43 46 49 50 50 47 43 41 40 39 35 29 24 24 22 22 20 17 17 16 23 41 52 55 56 56 53 52 51 50
32 32 32 33 33 34 35 36 37 40 41 41 40 41 43 46 49 49 48 43 43 42 39 37 32 26 23 22 21 22 22 21 19 19 19 30 46 55 58 58 58 54 51
35 34 34 35 33 35 36 37 40 41 43 45 43 40 41 44 46 48 47 44 42 43 43 40 36 31 23 23 19 20 22 22 23 21 24 23 25 39 52 57 58 57 55
37 36 36 36 37 39 40 40 42 44 46 46 44 38 40 43 45 45 46 44 43 42 43 44 40 36 30 27 23 17 20 21 22 24 24 24 24 24 33 45 53 56 56
41 41 40 40 39 41 41 42 44 46 48 46 43 39 39 41 45 43 42 42 43 44 43 45 43 39 36 30 29 23 18 19 21 25 24 26 27 25 24 29 38 47 53
44 45 45 42 44 44 45 45 46 49 50 44 38 40 44 42 42 45 42 41 41 43 43 42 45 43 37 34 30 27 25 18 18 23 22 25 27 27 27 25 26 33 40
46 47 48 50 46 49 49 48 48 50 49 45 43 41 43 43 44 45 42 42 40 41 41 41 43 44 42 35 32 30 28 23 19 20 24 22 24 26 28 29 28 26 27
50 49 51 53 53 50 52 51 52 54 52 50 46 46 45 42 46 44 43 43 41 40 39 40 41 42 42 39 36 32 31 27 23 22 21 26 25 24 25 29 29 28 28
54 54 51 53 54 55 52 52 55 54 52 51 47 46 47 44 46 45 43 43 43 40 38 38 41 42 42 41 38 37 35 30 25 24 24 23 28 27 27 26 28 29 29
57 58 55 52 56 56 58 54 50 51 50 49 47 47 49 47 48 46 43 42 43 41 37 36 39 41 43 42 40 38 38 36 30 25 25 26 27 31 29 29 29 29 29
56 58 59 55 53 56 58 59 57 53 55 53 51 50 53 50 49 49 46 44 44 42 39 36 38 42 42 43 41 41 39 40 34 30 28 26 27 30 33 30 30 31 30
59 58 61 62 59 54 58 60 62 63 60 59 58 56 55 52 51 51 48 47 46 45 41 38 40 43 43 44 42 42 40 39 38 34 30 29 28 29 33 33 32 32 32
63 62 61 64 67 62 57 60 61 60 61 61 61 59 58 56 53 53 51 51 49 48 45 40 40 45 46 46 44 43 43 39 38 36 35 31 32 30 31 36 34 33 32
72 72 69 65 67 70 67 61 62 64 64 64 64 64 62 58 57 56 56 54 52 50 48 44 44 46 47 47 46 44 44 41 38 37 37 36 33 32 31 34 37 35 34
75 75 74 72 70 71 75 71 66 65 68 69 66 66 66 62 60 60 59 57 55 52 49 47 47 48 48 47 48 46 47 42 37 40 36 39 37 33 31 33 38 37 35
78 80 81 80 78 75 75 77 75 71 70 73 73 70 70 67 65 63 62 59 56 54 52 51 51 49 50 48 49 48 49 46 38 40 38 37 38 36 34 31 36 38 35
85 86 89 88 88 87 85 83 84 84 80 77 79 78 75 75 74 70 66 62 60 58 57 56 53 52 51 51 51 49 48 47 42 40 39 38 38 35 34 33 32 36 35
90 91 92 93 93 93 93 90 86 87 88 84 83 84 84 82 81 78 74 70 66 64 62 60 56 55 54 52 53 53 50 48 45 37 36 37 39 39 35 33 32 33 35
95 96 97 97 99 99 98 98 95 91 90 92 89 87 88 87 83 82 79 74 72 68 65 63 61 59 58 56 54 55 51 49 44 39 37 36 36 39 38 36 36 36 36
96 97 99 100 100 102 102 102 101 100 95 94 96 93 92 91 88 86 85 80 76 73 71 68 65 63 62 59 57 56 52 51 46 41 40 38 35 36 37 36 36 38 39
95 98 101 104 106 108 110 109 107 106 104 100 96 98 98 97 94 90 88 86 81 78 76 73 70 67 64 61 61 56 55 51 47 44 42 41 39 37 36 37 36 37 38
98 102 104 106 109 111 112 114 116 116 113 110 106 102 101 99 97 97 94 91 87 82 79 77 73 69 68 65 63 58 56 53 49 46 43 42 42 41 41 42 40 39 38

GFSSE_250_spd_030.txt.gz
Wind_Speed
18 20 22 24 25 28 29 32 34 37 36 39 42 43 43 43 43 46 44 41 38 37 31 24 20 17 18 21 25 30 34 40 43 45 45 45 44 43 44 44 45 42 39
20 22 25 27 28 28 29 31 33 36 36 37 40 42 43 44 42 46 44 40 38 38 36 32 25 19 15 16 20 24 28 34 42 48 49 49 47 45 50 49 50 49 45
24 26 28 28 29 30 32 32 33 34 35 37 39 41 42 45 43 45 42 42 37 36 37 36 34 26 19 16 13 17 21 24 33 43 49 51 52 51 49 52 49 51 50
29 28 28 29 30 31 32 33 34 34 34 37 39 40 42 45 43 45 42 43 35 36 35 35 34 32 26 22 18 12 16 20 21 28 41 50 55 56 57 53 52 54 53
31 31 31 31 31 32 33 34 34 35 36 37 40 40 42 45 40 44 42 42 37 34 36 34 34 33 30 25 22 20 14 16 20 21 22 30 45 56 59 59 59 59 55
34 34 34 34 33 35 35 35 36 37 37 38 41 42 41 44 40 41 41 42 40 35 37 37 34 33 29 25 23 22 20 17 18 22 22 23 24 32 49 59 61 60 59
39 40 39 39 39 39 38 38 38 38 39 40 41 42 44 40 38 41 39 41 40 37 36 38 37 35 32 27 21 20 20 20 21 21 21 23 24 26 27 36 50 62 62
45 45 45 44 44 44 44 43 42 43 43 44 43 44 45 38 38 43 40 39 38 37 36 36 38 38 34 32 27 21 18 19 21 23 25 25 23 25 28 29 30 42 55
50 49 48 49 49 49 46 46 46 46 47 45 45 45 44 44 40 41 41 38 36 36 35 35 36 38 38 34 32 26 22 20 21 20 24 27 27 27 27 28 29 28 35
50 50 49 50 50 50 49 47 48 48 48 47 46 46 46 45 44 40 39 38 36 33 35 34 36 37 38 36 35 31 28 25 23 22 21 24 27 27 29 28 28 28 28
52 53 53 51 50 52 53 52 50 50 49 48 49 49 46 45 44 39 38 40 39 35 34 34 34 35 37 38 37 34 31 29 29 25 23 22 24 27 27 31 31 29 28
55 55 54 52 52 53 54 54 53 52 52 50 51 51 48 44 42 39 38 41 42 38 35 35 32 34 36 38 39 38 34 32 30 29 28 25 24 25 29 28 31 31 31
55 56 56 55 55 54 52 53 54 53 52 53 51 52 49 45 43 43 42 45 44 42 38 36 34 33 36 37 39 40 38 35 35 31 30 28 28 26 27 30 30 32 32
58 58 59 58 58 57 56 53 54 56 55 54 54 54 54 55 51 50 48 46 46 44 41 39 38 34 36 37 38 42 41 39 38 37 31 31 28 28 28 29 33 32 32
62 61 63 62 60 61 63 60 59 57 57 57 57 57 58 59 57 54 52 50 48 46 44 42 39 38 36 39 38 41 42 42 40 39 37 32 31 29 29 31 33 36 34
69 67 65 65 65 63 67 68 66 64 61 61 62 60 59 59 59 57 55 52 50 49 48 46 42 40 36 40 41 39 43 44 44 41 39 36 33 32 30 31 33 35 37
72 70 68 67 67 66 66 68 71 70 68 65 64 64 64 63 62 60 58 57 55 52 51 49 47 43 38 39 42 40 43 44 47 45 41 38 34 34 33 32 32 33 35
76 74 73 73 73 73 71 69 69 71 72 72 70 69 68 67 66 63 62 62 60 58 55 53 51 48 44 42 43 42 42 46 48 48 44 41 38 36 34 34 34 32 33
81 80 78 77 76 75 75 76 74 73 73 73 74 74 73 71 69 67 66 67 64 61 59 56 54 52 51 49 46 45 43 45 47 50 46 44 41 39 35 34 34 33 31
81 82 82 83 84 82 81 80 79 79 80 80 79 80 79 76 75 73 71 72 68 66 64 61 57 56 57 53 49 49 47 48 49 51 49 46 43 40 36 35 33 34 31
85 86 87 87 87 87 86 85 85 85 84 84 85 85 85 85 84 82 80 77 75 72 70 66 64 62 62 59 55 52 51 51 52 52 50 48 44 41 39 38 34 33 32
86 88 89 90 90 91 92 92 91 90 91 90 89 89 90 89 90 88 85 83 81 79 77 74 72 69 66 64 59 56 54 53 55 54 53 50 46 42 41 39 36 35 33
90 93 94 94 94 94 94 95 95 94 93 95 96 95 94 94 94 93 90 88 86 84 81 78 75 73 70 67 65 61 56 55 57 56 56 54 49 45 44 41 38 34 34
87 90 94 97 101 102 103 102 102 101 100 98 97 97 97 97 97 98 96 93 90 87 86 83 80 76 73 71 68 65 60 57 59 59 58 57 52 48 47 44 40 38 34
93 96 98 100 104 107 108 108 109 109 108 107 105 102 102 102 103 101 101 98 94 92 91 88 85 81 77 74 72 69 65 62 61 60 61 60 54 50 48 48 44 40 38
86 94 101 106 110 112 115 117 119 117 115 113 110 110 109 107 106 105 103 104 102 96 93 92 89 85 82 78 74 72 69 65 65 63 61 59 56 53 50 49 47 44 42

GFSSE_250_spd_033.txt.gz
Wind_Speed
18 20 22 25 27 28 31 32 33 34 36 36 36 38 39 40 40 44 39 39 43 39 36 33 29 25 21 21 22 23 28 32 37 41 44 44 44 43 45 45 48 45 43
22 23 25 26 27 29 30 32 33 35 35 36 35 37 39 41 43 42 38 37 41 40 37 36 33 29 27 22 21 21 24 27 29 35 43 46 48 48 47 46 46 46 47
28 29 29 30 32 33 33 33 33 34 35 37 38 38 40 41 41 42 37 38 38 41 38 36 35 35 30 27 22 20 19 24 25 28 35 44 50 50 51 50 47 50 51
31 32 33 34 34 35 36 37 37 37 37 38 39 38 40 41 41 42 37 37 37 40 38 36 34 36 36 32 27 21 18 19 24 25 27 33 43 50 52 52 51 48 53
34 36 38 39 40 41 42 41 40 40 40 39 40 40 41 41 42 41 39 38 38 35 37 37 35 33 34 35 33 27 23 19 19 24 24 25 28 36 46 51 54 55 53
38 39 42 44 46 46 46 45 43 42 41 40 42 43 42 43 42 41 41 38 39 34 35 34 35 35 32 32 32 30 27 25 21 21 25 27 26 26 28 36 47 55 54
42 43 45 47 47 47 46 45 44 43 42 42 42 42 42 42 42 40 39 39 39 36 35 34 35 36 36 32 30 31 28 28 26 23 23 27 27 28 28 29 31 35 45
44 45 48 47 46 47 48 47 47 46 46 44 44 44 42 41 42 41 39 38 39 36 35 35 34 35 37 35 30 30 29 28 28 27 26 25 29 30 29 29 29 31 32
49 46 47 48 48 48 49 49 49 49 49 49 47 45 43 41 42 44 41 39 38 35 33 34 35 34 35 38 34 30 30 30 29 27 28 27 26 31 34 32 29 29 30
49 47 48 49 50 49 49 50 50 50 50 50 50 48 45 44 44 44 42 39 38 36 34 34 33 34 34 37 38 35 32 31 31 30 29 28 28 27 30 35 34 30 28
52 52 52 51 52 54 54 53 52 53 52 52 51 51 48 45 45 43 42 41 39 37 37 36 35 35 35 35 37 37 36 35 33 33 32 31 29 28 27 29 34 35 32
55 58 58 57 57 57 58 58 58 56 55 53 52 53 51 50 49 46 43 41 40 40 41 41 37 36 37 36 37 37 37 37 37 36 35 35 33 31 28 27 28 33 35
64 65 65 64 63 63 62 62 62 61 60 59 57 57 57 55 54 52 49 49 49 47 46 44 40 38 37 36 37 38 37 38 37 38 38 37 36 33 31 29 29 28 32
69 70 70 68 67 66 64 63 63 64 64 63 62 63 63 61 58 56 55 54 52 52 49 48 44 41 40 38 38 38 39 38 39 38 41 38 38 36 33 30 30 31 30
68 69 71 71 71 70 70 68 65 64 65 64 64 65 65 65 63 61 59 58 56 53 51 49 47 44 41 40 40 39 39 41 38 40 41 41 40 38 36 33 32 31 32
71 69 70 72 73 71 71 73 72 69 66 67 68 68 69 68 67 65 63 61 60 58 55 53 50 48 45 43 43 42 41 42 40 41 42 43 43 40 39 36 35 33 32
69 69 69 71 73 74 76 76 76 75 74 73 71 72 72 72 71 69 68 66 64 62 61 58 55 52 49 47 45 44 44 43 44 42 45 44 45 44 40 39 38 36 33
76 75 72 71 70 72 75 78 80 79 79 79 76 74 74 76 75 74 73 71 68 66 65 63 60 57 54 51 48 47 45 46 46 44 46 47 46 46 43 41 39 38 35
75 75 74 74 73 74 77 77 79 82 84 84 85 84 82 80 78 77 77 75 73 71 69 67 65 61 58 56 54 52 49 48 48 46 47 48 47 49 46 43 41 39 37
68 70 72 73 76 77 77 79 80 82 84 88 89 89 89 89 87 84 83 83 80 78 75 73 70 67 65 63 60 57 55 51 52 50 49 50 49 50 48 45 43 40 40
64 68 72 75 78 80 81 82 83 84 85 88 91 93 94 94 93 91 90 88 86 84 83 81 79 77 75 70 65 64 61 57 55 54 51 51 50 49 49 48 46 42 42
69 71 74 77 80 84 88 92 91 90 90 91 91 94 96 97 98 97 95 94 91 89 87 86 84 83 80 77 73 70 66 63 61 58 54 53 53 51 50 50 47 45 43
75 80 82 84 87 89 90 92 95 97 98 98 98 99 99 98 98 100 100 99 97 96 93 90 88 86 84 80 78 75 71 68 65 61 57 57 56 53 52 51 49 46 44
84 89 91 93 93 93 93 93 95 97 101 104 105 105 104 104 104 103 102 102 102 100 97 96 95 92 89 84 80 79 76 72 69 65 62 59 59 57 56 54 52 50 45
93 97 98 98 98 97 98 97 97 98 101 103 107 110 110 111 110 107 107 106 105 104 103 101 98 95 92 89 85 83 79 76 73 70 65 62 60 61 59 57 55 51 47
99 102 101 100 101 102 102 103 104 105 104 106 109 109 110 114 117 116 115 111 109 109 108 107 102 99 97 93 89 85 83 80 77 73 70 66 65 63 60 59 59 53 49

GFSSE_250_spd_036.txt.gz
Wind_Speed
24 26 27 28 30 31 33 33 35 36 36 36 36 35 37 38 39 40 38 36 34 36 37 37 36 33 30 26 24 19 18 21 28 35 41 46 44 47 45 44 43 43 41
28 29 29 30 31 32 35 37 38 37 37 38 38 38 38 39 39 39 36 37 38 36 36 38 38 35 34 31 28 25 20 18 21 27 33 39 44 48 47 47 45 46 46
27 29 31 33 33 34 37 38 40 39 39 38 38 38 38 38 39 38 37 35 34 36 36 36 38 37 36 35 30 28 25 21 18 21 26 32 39 45 48 48 48 48 47
30 32 33 35 37 39 41 42 41 41 40 40 40 39 39 39 39 39 39 36 34 34 35 34 36 37 37 35 34 31 28 24 22 20 20 26 31 37 44 50 51 51 48
34 35 37 39 39 40 43 43 42 42 43 43 43 43 41 40 41 40 39 39 35 35 35 34 34 36 37 35 34 33 31 27 24 22 20 22 26 30 32 39 48 52 51
39 41 41 42 42 42 43 44 44 43 43 43 44 44 44 42 41 41 39 39 37 35 35 35 33 33 36 36 34 31 32 31 29 26 23 20 23 27 30 32 35 41 49
43 45 45 46 45 45 45 46 46 46 46 45 45 45 44 44 43 41 40 39 38 37 36 36 35 32 32 34 36 33 29 30 30 30 28 25 22 20 27 30 33 35 36
44 46 48 48 47 47 47 48 49 48 48 48 47 46 45 44 43 43 41 39 39 38 37 36 35 33 33 34 34 35 32 28 29 29 29 28 27 25 23 23 30 32 33
47 48 50 51 51 50 50 52 54 53 52 52 52 51 49 47 46 45 45 42 39 38 37 37 36 34 35 36 36 35 35 32 28 30 30 29 29 28 26 24 24 27 32
55 56 55 55 55 54 55 56 56 57 58 57 57 56 55 52 50 48 47 45 43 40 38 38 37 36 37 38 37 36 35 36 33 29 30 31 29 29 28 27 24 25 27
61 61 59 59 59 61 61 62 63 62 61 61 59 59 58 56 54 52 51 49 48 45 43 39 39 41 43 41 37 35 35 34 35 34 31 32 32 31 31 30 28 26 26
63 62 62 62 63 64 66 67 65 63 62 61 60 59 58 57 56 55 53 53 52 50 48 46 47 47 45 43 41 37 34 36 35 35 34 33 34 32 31 32 30 28 27
65 67 67 68 69 67 66 66 66 65 65 64 64 63 62 61 59 58 57 56 54 51 51 50 50 48 47 45 41 39 36 35 37 35 35 35 36 35 33 33 32 29 29
69 69 70 70 69 68 69 68 68 67 67 67 67 65 65 64 62 61 61 60 59 55 54 53 52 50 48 47 43 40 39 38 37 38 36 36 36 37 36 34 33 32 31
67 69 71 72 72 71 71 71 70 69 69 68 69 69 69 68 67 65 64 65 64 62 58 57 55 53 51 50 47 44 42 41 38 38 39 38 38 37 38 37 34 35 34
70 71 72 73 73 73 73 73 72 71 70 70 70 71 72 72 71 70 70 69 68 67 64 61 59 57 55 54 52 49 46 44 43 39 41 41 39 40 38 39 38 36 36
70 68 66 66 67 68 68 69 71 72 72 72 72 72 74 75 75 74 74 73 73 71 69 67 65 62 60 57 56 54 50 48 46 44 43 43 40 41 40 40 40 38 37
58 56 56 57 60 61 63 66 69 72 74 76 76 76 75 74 77 78 78 78 76 75 74 72 70 68 65 62 59 58 56 52 49 47 46 45 44 42 43 42 41 41 39
49 51 53 56 58 60 62 63 66 70 75 79 80 82 82 80 79 80 82 83 81 79 78 78 76 74 71 68 64 62 60 57 54 52 49 48 46 44 45 45 43 42 41
55 57 60 61 62 63 65 67 70 74 77 81 84 86 87 87 87 87 86 86 86 85 84 81 79 79 78 75 72 68 65 62 60 58 54 52 50 48 48 48 45 44 42
59 61 62 63 67 70 71 74 77 80 82 84 87 90 92 93 91 92 92 93 91 89 88 87 86 84 82 80 78 75 72 68 67 66 61 57 54 52 50 50 48 46 44
65 67 69 72 74 78 80 85 86 89 90 88 87 89 94 95 93 93 95 96 96 96 93 91 90 88 88 85 82 79 77 74 73 70 67 65 61 57 55 53 51 48 46
70 72 74 78 82 86 88 92 93 96 96 95 96 94 93 96 98 97 97 98 100 101 99 98 95 92 92 89 87 84 80 79 78 75 71 68 65 62 58 55 54 50 49
75 78 80 83 87 92 94 98 100 104 101 100 99 100 99 97 98 100 101 102 104 104 105 104 100 99 96 94 90 88 85 83 81 79 77 73 68 65 62 58 56 53 52
81 84 87 91 96 100 102 104 107 107 106 105 104 104 103 102 101 100 100 103 105 107 108 108 108 104 100 99 96 92 88 86 85 83 82 78 71 67 63 62 61 57 53
86 89 93 98 103 105 108 111 114 112 109 108 108 107 105 104 103 103 102 101 104 108 109 110 109 110 109 103 99 97 93 89 87 85 84 83 76 72 68 65 63 60 56